Everett, WA

1:26 AM PST on November 18, 2017 (GMT -0800)
Snohomish County

Weather History for KPAE - December, 2011

Change the Weather History Date:

Thursday, December 15, 2011

  Actual Average Record
Temperature  
Mean Temperature 40 °F -  
Max Temperature 43 °F 46 °F 59 °F (1952)
Min Temperature 37 °F 35 °F 19 °F (2008)
Degree Days  
Heating Degree Days 25    
Moisture  
Dew Point 38 °F    
Average Humidity 88    
Maximum Humidity 93    
Minimum Humidity 79    
Precipitation  
Precipitation 0.02 in - - ()
Sea Level Pressure  
Sea Level Pressure 30.32 in    
Wind  
Wind Speed 4 mph (SE)    
Max Wind Speed 8 mph    
Max Gust Speed -    
Visibility 6 miles    
Events Fog , Rain    
Averages and records for this station are not official NWS values.
T = Trace of Precipitation, MM = Missing Value Source: NWS Daily Summary

Daily Weather History Graph

Daily Weather History Graph

Search for Another Location

Airport or City:

Trip Planner

Search our weather history database for the weather conditions in past years. The results will help you decide how hot, cold, wet, or windy it might be!

Date:

Astronomy

Dec. 15, 2011 Rise Set
Actual Time 7:51 AM PST 4:16 PM PST
Civil Twilight 7:15 AM PST 4:52 PM PST
Nautical Twilight 6:35 AM PST 5:32 PM PST
Astronomical Twilight 5:58 AM PST 6:10 PM PST
Moon 10:10 PM PST (12/15) 10:52 AM PST (12/15)
Length of Visible Light 9h 37m
Length of Day
8h 24m
Waning Gibbous, 73% of the Moon is Illuminated
Dec 15
Waning Gibbous
Dec 17
Last Quarter
Dec 24
New
Dec 31
First Quarter
Jan 8
Full

Hourly Weather History & Observations

Time (PST) Temp. Windchill Dew Point Humidity Pressure Visibility Wind Dir Wind Speed Gust Speed Precip Events Conditions
12:53 AM 37.0 °F 31.6 °F 33.1 °F 86% 30.12 in 10.0 mi ESE 6.9 mph - 0.00 in Rain Light Rain
1:15 AM 37.4 °F - 33.8 °F 87% 30.10 in 10.0 mi Calm Calm - 0.00 in   Overcast
1:53 AM 39.0 °F 36.8 °F 33.1 °F 79% 30.13 in 10.0 mi Variable 3.5 mph - 0.00 in   Overcast
2:04 AM 37.4 °F 34.9 °F 33.8 °F 87% 30.12 in 10.0 mi Variable 3.5 mph - 0.00 in Rain Light Rain
2:53 AM 37.9 °F 35.5 °F 32.0 °F 79% 30.13 in 10.0 mi Variable 3.5 mph - 0.00 in   Overcast
3:53 AM 37.9 °F - 33.1 °F 83% 30.14 in 10.0 mi Calm Calm - N/A   Overcast
4:53 AM 37.9 °F 35.5 °F 33.1 °F 83% 30.17 in 10.0 mi Variable 3.5 mph - 0.01 in   Overcast
5:53 AM 37.4 °F 33.8 °F 33.8 °F 87% 30.17 in 10.0 mi ESE 4.6 mph - N/A Rain Light Rain
6:53 AM 37.4 °F 34.9 °F 33.8 °F 87% 30.19 in 10.0 mi Variable 3.5 mph - N/A Rain Light Rain
7:53 AM 39.0 °F - 35.1 °F 86% 30.23 in 10.0 mi Calm Calm - 0.00 in   Overcast
8:48 AM 39.2 °F 35.0 °F 35.6 °F 87% 30.24 in 7.0 mi ESE 5.8 mph - 0.01 in Rain Light Rain
8:53 AM 39.0 °F 35.7 °F 36.0 °F 89% 30.26 in 6.0 mi ESE 4.6 mph - 0.01 in Rain Light Rain
9:53 AM 39.9 °F 35.8 °F 36.0 °F 86% 30.30 in 10.0 mi ESE 5.8 mph - 0.00 in   Overcast
10:53 AM 39.9 °F 37.8 °F 37.0 °F 89% 30.32 in 10.0 mi Variable 3.5 mph - N/A   Overcast
11:53 AM 42.1 °F 38.4 °F 37.9 °F 85% 30.33 in 10.0 mi SSE 5.8 mph - N/A   Overcast
12:07 PM 42.8 °F 40.1 °F 37.4 °F 81% 30.32 in 10.0 mi South 4.6 mph - N/A   Overcast
12:53 PM 43.0 °F 40.3 °F 39.0 °F 86% 30.35 in 10.0 mi SSE 4.6 mph - N/A   Overcast
1:53 PM 43.0 °F 40.3 °F 39.0 °F 86% 30.36 in 10.0 mi SSE 4.6 mph - N/A   Overcast
2:53 PM 42.1 °F 39.2 °F 39.0 °F 89% 30.38 in 9.0 mi ESE 4.6 mph - N/A   Overcast
3:00 PM 42.8 °F 40.1 °F 39.2 °F 87% 30.37 in 4.0 mi ESE 4.6 mph - N/A   Overcast
3:53 PM 43.0 °F - 39.9 °F 89% 30.40 in 0.8 mi Calm Calm - N/A   Overcast
4:35 PM 42.8 °F - 39.2 °F 87% 30.39 in 0.8 mi Calm Calm - N/A   Overcast
4:45 PM 42.8 °F 41.1 °F 39.2 °F 87% 30.40 in 0.8 mi SSE 3.5 mph - N/A   Overcast
4:53 PM 42.1 °F 39.2 °F 39.9 °F 92% 30.41 in 1.0 mi SSE 4.6 mph - N/A   Overcast
5:53 PM 42.1 °F 40.2 °F 39.9 °F 92% 30.43 in 5.0 mi SSE 3.5 mph - N/A   Overcast
6:13 PM 42.8 °F 41.1 °F 39.2 °F 87% 30.42 in 0.5 mi South 3.5 mph - N/A Fog Fog
6:32 PM 42.8 °F 41.1 °F 39.2 °F 87% 30.42 in 1.0 mi South 3.5 mph - N/A   Overcast
6:53 PM 43.0 °F 39.5 °F 39.9 °F 89% 30.43 in 1.0 mi SSE 5.8 mph - N/A   Overcast
7:53 PM 43.0 °F 40.3 °F 41.0 °F 93% 30.45 in 0.8 mi SSE 4.6 mph - N/A   Mist
8:43 PM 42.8 °F 40.1 °F 41.0 °F 93% 30.45 in 1.5 mi South 4.6 mph - N/A   Overcast
8:51 PM 42.8 °F 39.3 °F 41.0 °F 93% 30.45 in 3.0 mi South 5.8 mph - N/A   Overcast
8:52 PM 43.0 °F 39.5 °F 41.0 °F 93% 30.47 in 3.0 mi SSE 5.8 mph - N/A   Overcast
9:53 PM 43.0 °F 38.2 °F 41.0 °F 93% 30.47 in 4.0 mi SSE 8.1 mph - N/A   Overcast
10:53 PM 43.0 °F 38.2 °F 41.0 °F 93% 30.47 in 5.0 mi SSE 8.1 mph - 0.00 in   Overcast
11:53 PM 43.0 °F 38.2 °F 41.0 °F 93% 30.48 in 5.0 mi SSE 8.1 mph - N/A   Overcast